DECAYED
Showing default

TROOP-F2, 60557 (Decayed)

Orbit data source: Space-Track

TROOP-F2, 60557 was a payload satellite owned by NearSpaceLaunch (US) in LEO that was launched on Fri, 16 Aug 2024 UTC via an FALCON 9 launch vehicle from the Air Force Western Test Range (AFWTR). Payload-class satellites include a variety of spacecraft equipped with specific instruments for various scientific and technological missions. These include communications satellites like Starlink; space stations such as the ISS; scientific satellites like the Hubble; Earth observation satellites from companies like Planet Labs, Umbra, and HawkEye 360; GPS; miniature CubeSats for education and research; and military/defense satellites.

Not visible in the next 10 days
Identifier
60557, 2024-149CT
Orbit
Decayed
Country
Flag of USUS
Related business
Manufacturer
NearSpaceLaunch
Mission
Decayed Commercial Technology
Bus & Motor
CUBESAT 6U, Unknown motor
Mass
10 kg wet, ~10 kg dry
Launch date (UTC)
2024-08-16 (2 years ago)
Launch vehicle
FALCON 9
Launch site
Air Force Western Test Range (AFWTR)
Object type
Payload
Rocket body
Debris
Shape & HBR
Box + 4 Pan, 0.3 m
Radar Cross Section
0.139 m², Medium (>0.1 m² and < 1m²)

Expand to show TLE details & history
Last TLE update: 4 months ago

TLE from 4 months ago
0 TROOP-F2
1 60557U 24149CT  26133.93503187  .13965016  25212-5  24026-3 0  9999
2 60557  97.2936 229.8775 0015636 271.5542  88.3970 16.46733741 97898
Epoch: 2026-05-13T22:26Z
TLE epoch observation values (Epoch: 2026-05-13T22:26:26.753Z)
Latitude
-0.00005°
Longitude
21.57811°
Altitude
150.945 km
Speed
7.816 km/s
True Right ascension
15h 19m 30s
True Declination
0° 00' 00"
Sunlit
Object was in full shadow at epoch
Visualization orbit readout
Latitude
Unknown
Longitude
Unknown
Altitude
Unknown
Speed
Unknown
Apparent Right ascension
Unknown
Apparent Declination
Unknown
Sunlit
N/A
Visualization observer readout
Local Sidereal Time
05:27:26
Azimuth
Unknown
Elevation
Unknown
Doppler factor
Unknown
Orbital elements
Apogee altitude
154.944 km
Perigee altitude
134.546 km
Semi-major axis
6,522.882 km
Eccentricity
0.00156
Inclination
97.2936°
RAAN
229.8775°
Arg. of periapsis
271.5542°
True anomaly
88.57611°
Mean anomaly
88.397°
Eccentric anomaly
88.48656°
Mean motion
4.11987 °/min
Orbital period
87.38 mins
BSTAR
0.00024026
Loading maneuver chart data...
Computing Atmospheric mass density...
Loading historical data...
Loading historical data...
Loading historical data...
Loading historical data...
Loading historical data...
Loading historical data...
Loading historical data...

Documentation

Showing up to 5 results
|